TimeAKST,TemperatureF,Dew PointF,Humidity,Sea Level PressureIn,VisibilityMPH,Wind Direction,Wind SpeedMPH,Gust SpeedMPH,PrecipitationIn,Events,Conditions,WindDirDegrees,DateUTC
12:16 AM,-29.2,-34.6,75,-9999,10.0,Calm,Calm,-,N/A,,Clear,0,2014-02-10 09:16:00
12:36 AM,-29.2,-34.6,75,-9999,10.0,Calm,Calm,-,N/A,,Clear,0,2014-02-10 09:36:00
12:56 AM,-29.2,-36.4,68,-9999,10.0,Calm,Calm,-,N/A,,Clear,0,2014-02-10 09:56:00
1:16 AM,-31.0,-36.4,75,-9999,10.0,Calm,Calm,-,N/A,,Clear,0,2014-02-10 10:16:00
1:36 AM,-29.2,-36.4,68,-9999,10.0,Calm,Calm,-,N/A,,Clear,0,2014-02-10 10:36:00
1:56 AM,-31.0,-36.4,75,-9999,10.0,Calm,Calm,-,N/A,,Clear,0,2014-02-10 10:56:00
2:16 AM,-31.0,-36.4,75,-9999,10.0,Calm,Calm,-,N/A,,Clear,0,2014-02-10 11:16:00
2:36 AM,-32.8,-36.4,83,-9999,10.0,Calm,Calm,-,N/A,,Clear,0,2014-02-10 11:36:00
2:56 AM,-31.0,-36.4,75,-9999,10.0,Calm,Calm,-,N/A,,Clear,0,2014-02-10 11:56:00
3:16 AM,-32.8,-36.4,83,-9999,10.0,Calm,Calm,-,N/A,,Clear,0,2014-02-10 12:16:00
3:36 AM,-32.8,-38.2,75,-9999,10.0,Calm,Calm,-,N/A,,Clear,0,2014-02-10 12:36:00
3:56 AM,-32.8,-36.4,83,-9999,10.0,Calm,Calm,-,N/A,,Clear,0,2014-02-10 12:56:00
4:16 AM,-32.8,-38.2,75,-9999,10.0,Calm,Calm,-,N/A,,Clear,0,2014-02-10 13:16:00
4:36 AM,-32.8,-38.2,75,-9999,10.0,Calm,Calm,-,N/A,,Clear,0,2014-02-10 13:36:00
4:56 AM,-32.8,-38.2,75,-9999,10.0,Calm,Calm,-,N/A,,Clear,0,2014-02-10 13:56:00
5:16 AM,-32.8,-38.2,75,-9999,10.0,Calm,Calm,-,N/A,,Clear,0,2014-02-10 14:16:00
5:36 AM,-34.6,-38.2,82,-9999,10.0,Calm,Calm,-,N/A,,Clear,0,2014-02-10 14:36:00
5:56 AM,-32.8,-38.2,75,-9999,10.0,Calm,Calm,-,N/A,,Clear,0,2014-02-10 14:56:00
6:16 AM,-34.6,-40.0,75,-9999,10.0,Calm,Calm,-,N/A,,Clear,0,2014-02-10 15:16:00
6:36 AM,-34.6,-40.0,75,-9999,10.0,Calm,Calm,-,N/A,,Clear,0,2014-02-10 15:36:00
6:56 AM,-34.6,-38.2,82,-9999,10.0,Calm,Calm,-,N/A,,Clear,0,2014-02-10 15:56:00
7:16 AM,-34.6,-40.0,75,-9999,10.0,Calm,Calm,-,N/A,,Clear,0,2014-02-10 16:16:00
7:36 AM,-34.6,-41.8,68,-9999,10.0,Calm,Calm,-,N/A,,Clear,0,2014-02-10 16:36:00
7:56 AM,-34.6,-40.0,75,-9999,10.0,Calm,Calm,-,N/A,,Clear,0,2014-02-10 16:56:00
8:16 AM,-34.6,-40.0,75,-9999,10.0,Calm,Calm,-,N/A,,Clear,0,2014-02-10 17:16:00
8:36 AM,-34.6,-41.8,68,-9999,10.0,Calm,Calm,-,N/A,,Clear,0,2014-02-10 17:36:00
8:56 AM,-34.6,-40.0,75,-9999,10.0,Calm,Calm,-,N/A,,Clear,0,2014-02-10 17:56:00
9:16 AM,-32.8,-38.2,75,-9999,10.0,Calm,Calm,-,N/A,,Clear,0,2014-02-10 18:16:00
9:36 AM,-32.8,-38.2,75,-9999,10.0,Calm,Calm,-,N/A,,Clear,0,2014-02-10 18:36:00
9:56 AM,-32.8,-36.4,83,-9999,10.0,Calm,Calm,-,N/A,,Clear,0,2014-02-10 18:56:00
10:16 AM,-27.4,-32.8,75,-9999,10.0,Calm,Calm,-,N/A,,Clear,0,2014-02-10 19:16:00
10:36 AM,-25.6,-32.8,69,-9999,10.0,Calm,Calm,-,N/A,,Clear,0,2014-02-10 19:36:00
10:56 AM,-23.8,-29.2,76,-9999,10.0,Calm,Calm,-,N/A,,Clear,0,2014-02-10 19:56:00
11:16 AM,-20.2,-25.6,76,-9999,10.0,Calm,Calm,-,N/A,,Clear,0,2014-02-10 20:16:00
11:36 AM,-18.4,-23.8,76,-9999,10.0,Calm,Calm,-,N/A,,Clear,0,2014-02-10 20:36:00
11:56 AM,-14.8,-20.2,77,-9999,10.0,Calm,Calm,-,N/A,,Clear,0,2014-02-10 20:56:00
12:16 PM,-11.2,-18.4,70,-9999,10.0,Calm,Calm,-,N/A,,Clear,0,2014-02-10 21:16:00
12:36 PM,-9.4,-16.6,71,-9999,10.0,Calm,Calm,-,N/A,,Clear,0,2014-02-10 21:36:00
12:56 PM,-7.6,-14.8,71,-9999,10.0,Calm,Calm,-,N/A,,Clear,0,2014-02-10 21:56:00
1:16 PM,-7.6,-16.6,65,-9999,10.0,Calm,Calm,-,N/A,,Clear,0,2014-02-10 22:16:00
1:36 PM,-7.6,-14.8,71,-9999,10.0,Calm,Calm,-,N/A,,Clear,0,2014-02-10 22:36:00
1:56 PM,-5.8,-11.2,77,30.06,10.0,Calm,Calm,-,N/A,,Clear,0,2014-02-10 22:56:00
2:16 PM,-0.4,-9.4,66,30.05,10.0,Calm,Calm,-,N/A,,Clear,0,2014-02-10 23:16:00
2:36 PM,-0.4,-9.4,66,30.04,10.0,Calm,Calm,-,N/A,,Clear,0,2014-02-10 23:36:00
2:56 PM,-0.4,-9.4,66,30.04,10.0,Calm,Calm,-,N/A,,Clear,0,2014-02-10 23:56:00
3:16 PM,-0.4,-9.4,66,30.03,10.0,SW,3.5,-,N/A,,Clear,220,2014-02-11 00:16:00
3:36 PM,-2.2,-9.4,71,30.03,10.0,Calm,Calm,-,N/A,,Clear,0,2014-02-11 00:36:00
3:56 PM,-0.4,-9.4,66,30.02,10.0,Calm,Calm,-,N/A,,Clear,0,2014-02-11 00:56:00
4:16 PM,-5.8,-11.2,77,30.02,10.0,Calm,Calm,-,N/A,,Clear,0,2014-02-11 01:16:00
4:36 PM,-9.4,-14.8,77,30.01,10.0,Calm,Calm,-,N/A,,Clear,0,2014-02-11 01:36:00
4:56 PM,-11.2,-16.6,77,30.01,10.0,Calm,Calm,-,N/A,,Clear,0,2014-02-11 01:56:00
5:16 PM,-13.0,-18.4,77,30.01,10.0,Calm,Calm,-,N/A,,Clear,0,2014-02-11 02:16:00
5:36 PM,-14.8,-18.4,84,30.00,10.0,Calm,Calm,-,N/A,,Clear,0,2014-02-11 02:36:00
5:56 PM,-14.8,-20.2,77,30.00,10.0,Calm,Calm,-,N/A,,Clear,0,2014-02-11 02:56:00
6:16 PM,-16.6,-20.2,84,29.99,10.0,Calm,Calm,-,N/A,,Clear,0,2014-02-11 03:16:00
6:36 PM,-16.6,-20.2,84,29.99,10.0,Calm,Calm,-,N/A,,Clear,0,2014-02-11 03:36:00
6:56 PM,-18.4,-23.8,76,29.99,10.0,Calm,Calm,-,N/A,,Clear,0,2014-02-11 03:56:00
7:16 PM,-18.4,-23.8,76,29.98,10.0,Calm,Calm,-,N/A,,Clear,0,2014-02-11 04:16:00
7:36 PM,-20.2,-25.6,76,29.98,10.0,Calm,Calm,-,N/A,,Clear,0,2014-02-11 04:36:00
7:56 PM,-22.0,-25.6,83,29.97,10.0,Calm,Calm,-,N/A,,Clear,0,2014-02-11 04:56:00
8:16 PM,-23.8,-27.4,83,29.97,10.0,Calm,Calm,-,N/A,,Clear,0,2014-02-11 05:16:00
8:36 PM,-23.8,-27.4,83,29.96,10.0,Calm,Calm,-,N/A,,Clear,0,2014-02-11 05:36:00
8:56 PM,-23.8,-27.4,83,-9999,10.0,Calm,Calm,-,N/A,,Clear,0,2014-02-11 05:56:00
9:16 PM,-23.8,-27.4,83,-9999,10.0,Calm,Calm,-,N/A,,Clear,0,2014-02-11 06:16:00
9:36 PM,-25.6,-29.2,83,-9999,10.0,Calm,Calm,-,N/A,,Clear,0,2014-02-11 06:36:00
9:56 PM,-25.6,-29.2,83,-9999,10.0,Calm,Calm,-,N/A,,Clear,0,2014-02-11 06:56:00
10:16 PM,-25.6,-29.2,83,-9999,10.0,Calm,Calm,-,N/A,,Clear,0,2014-02-11 07:16:00
10:36 PM,-25.6,-31.0,76,-9999,10.0,Calm,Calm,-,N/A,,Clear,0,2014-02-11 07:36:00
10:56 PM,-25.6,-32.8,69,-9999,10.0,Calm,Calm,-,N/A,,Clear,0,2014-02-11 07:56:00
11:16 PM,-25.6,-32.8,69,-9999,10.0,Calm,Calm,-,N/A,,Clear,0,2014-02-11 08:16:00
11:36 PM,-27.4,-32.8,75,-9999,10.0,Calm,Calm,-,N/A,,Clear,0,2014-02-11 08:36:00
11:56 PM,-27.4,-32.8,75,-9999,10.0,Calm,Calm,-,N/A,,Clear,0,2014-02-11 08:56:00